Theta_e
322 325 327 326 326 326 325 327 330 329 327 323 322 315 315 315 315 314 310 307 308 314 322 328 330 329 331 331 330 330 330 330 329 330 330 330 330 330 330 329 329 327 326 325
321 325 324 324 324 326 328 328 328 329 329 327 322 318 317 316 315 316 316 311 309 309 311 317 326 329 330 331 331 329 330 330 330 329 329 328 327 329 331 330 330 329 328 328
324 324 321 324 324 326 327 328 330 329 326 321 316 322 321 314 316 317 317 317 314 311 309 312 320 326 329 330 330 329 329 330 330 329 329 328 328 328 328 329 329 329 329 328
323 319 321 323 325 324 328 324 326 330 325 333 316 336 322 321 318 316 316 317 316 314 309 311 317 323 327 329 330 330 329 329 330 329 329 328 327 327 327 327 328 329 328 328
320 320 321 325 324 323 325 325 327 330 327 322 317 319 323 313 317 317 316 317 317 316 312 311 315 321 325 327 329 330 330 329 329 329 328 328 327 327 327 327 328 328 328 328
318 316 320 322 321 323 323 326 321 322 322 327 327 317 320 315 316 315 314 314 315 314 311 310 311 320 323 326 328 330 330 330 330 329 329 328 328 327 327 327 327 327 328 328
320 319 318 319 323 322 325 325 326 326 327 331 318 316 324 318 315 313 313 312 311 312 311 311 307 313 321 324 326 328 329 329 330 330 329 329 329 328 328 328 327 327 327 327
322 324 322 319 321 325 325 322 326 329 327 326 313 321 318 315 318 317 312 311 307 306 307 307 307 309 318 323 325 326 327 328 329 330 330 330 329 329 329 329 328 328 327 327
323 321 319 319 319 322 323 324 319 316 304 314 313 310 309 310 310 310 309 309 306 305 304 304 304 306 316 321 324 325 326 328 328 329 330 330 330 330 330 329 329 328 328 328
319 322 319 318 318 318 321 321 326 319 321 315 313 312 314 313 313 310 308 305 305 303 303 303 302 305 308 317 322 324 326 327 328 328 329 330 331 331 331 330 330 330 329 329
317 318 317 317 321 323 321 322 322 321 314 316 314 313 308 312 311 310 308 306 304 303 302 302 302 304 307 308 315 322 325 326 326 327 328 329 329 330 330 330 330 330 330 330
319 316 319 318 315 315 320 321 320 324 319 312 313 313 309 306 303 304 307 305 304 303 302 301 301 303 305 306 307 309 314 322 325 326 326 327 328 328 329 330 330 330 331 331
318 314 318 318 316 314 320 318 320 317 314 317 316 318 306 305 306 305 304 303 302 304 304 303 303 303 305 307 307 308 308 309 310 311 313 316 321 324 326 328 329 330 330 329
315 312 316 320 318 315 322 320 319 320 320 320 318 316 308 306 305 304 304 304 302 302 302 303 304 304 305 307 308 308 309 309 308 308 307 307 307 308 310 317 324 328 329 328
316 314 315 314 311 314 317 320 318 320 320 319 319 312 312 305 305 303 303 303 304 302 302 302 303 303 304 306 308 309 310 310 310 310 309 308 308 310 312 317 323 325 326 327
311 314 314 317 314 311 313 317 318 316 318 318 317 312 309 308 303 303 302 303 303 302 303 302 302 302 303 305 307 309 310 311 311 311 310 310 311 314 316 318 319 320 321 322
315 313 314 319 315 312 314 314 317 317 315 316 318 317 308 308 304 303 302 302 302 302 302 302 302 302 303 306 307 308 310 311 311 311 311 310 310 311 312 314 315 315 315 317
312 311 313 318 313 319 314 310 313 317 316 315 314 314 314 313 307 305 303 302 301 301 301 300 299 300 303 304 306 307 307 309 310 311 311 311 310 310 310 310 310 310 311 312
309 311 316 319 316 312 311 310 311 313 315 315 315 315 313 311 310 310 303 301 302 301 301 301 302 302 302 303 303 304 306 307 309 309 310 310 310 310 310 309 307 307 306 306
311 311 314 313 320 320 314 307 307 309 313 312 313 314 314 308 312 313 312 303 301 300 301 300 301 302 301 300 302 304 304 305 305 306 308 309 309 310 311 309 307 305 304 304
310 313 316 317 317 311 307 305 308 313 314 310 311 310 311 312 312 312 303 301 298 297 297 298 297 295 294 296 299 300 300 299 299 300 302 304 305 307 307 306 304 302 302 303
313 316 316 317 317 315 305 305 311 311 305 306 307 308 308 310 309 302 300 298 295 294 293 293 292 290 292 295 296 295 295 294 296 298 299 301 302 302 302 303 302 301 302 302
313 312 313 313 312 305 303 306 304 303 305 304 304 304 303 303 301 298 296 294 293 292 291 291 289 287 288 291 292 291 289 291 293 294 294 296 297 298 299 299 299 299 300 301
306 307 308 312 309 306 304 303 302 301 303 303 301 301 300 300 297 295 293 291 290 289 288 287 286 285 284 286 288 289 290 291 292 293 293 294 295 296 297 298 298 299 299 299
304 306 306 306 304 303 301 295 295 297 299 300 297 297 297 296 294 293 291 289 287 286 285 285 284 283 282 285 286 289 290 291 292 293 293 294 295 295 295 295 296 297 297 298
288 293 306 308 291 296 298 293 291 295 295 295 298 296 292 293 292 289 288 286 284 282 281 280 279 279 279 282 284 287 290 291 292 292 292 293 294 293 294 294 293 293 294 294
Wind_Speed
7 6 16 17 16 2 8 10 15 11 8 6 16 18 18 14 5 8 9 9 11 15 24 29 36 38 36 37 38 42 42 42 41 40 38 34 34 32 29 33 30 29 28 27
4 19 14 13 14 10 7 8 16 12 6 7 11 19 20 10 8 11 13 10 15 15 14 18 28 33 36 42 45 43 46 43 44 39 37 32 34 36 37 32 33 32 31 29
22 5 10 12 13 12 14 11 8 12 3 6 4 16 17 8 15 15 12 16 15 17 16 14 20 31 37 38 41 42 44 45 44 40 37 34 27 30 34 39 39 35 33 33
8 7 15 12 13 15 15 13 11 11 1 7 9 9 10 8 18 17 20 19 19 16 9 13 20 27 35 39 37 37 39 44 45 43 39 36 31 27 31 34 40 40 37 36
7 15 14 15 16 15 8 7 2 6 4 5 4 4 6 3 8 13 19 20 20 19 16 17 14 30 35 33 38 42 41 41 44 44 39 38 33 30 26 32 37 39 39 38
5 4 9 9 10 18 7 3 6 3 2 5 12 8 6 6 9 7 7 13 17 14 13 13 23 29 28 34 37 39 39 42 41 43 43 42 38 32 30 32 36 39 41 40
8 12 3 12 10 6 8 9 2 3 5 7 1 8 14 7 10 9 10 9 10 11 10 13 11 16 24 31 36 38 40 37 42 43 42 43 43 37 37 38 37 33 35 37
10 8 15 13 9 7 17 5 6 7 4 2 4 8 6 16 18 15 8 8 7 9 9 10 11 19 24 31 38 38 37 37 39 42 43 44 41 39 40 38 36 37 36 38
10 9 12 16 6 12 7 6 2 7 2 2 4 8 9 15 11 9 10 8 10 9 8 10 9 19 27 30 34 40 40 39 38 43 44 38 38 41 40 38 35 37 38 36
6 8 12 11 6 8 8 13 4 4 5 5 4 5 8 6 13 9 8 10 10 9 8 8 7 15 27 32 35 37 39 40 44 44 42 40 44 43 42 37 41 40 39 37
6 4 3 10 14 17 6 9 5 6 5 5 2 6 9 14 5 8 9 10 10 9 9 8 7 10 15 24 28 32 35 36 36 40 41 41 40 42 40 38 41 41 38 37
7 3 5 12 5 12 25 10 4 5 6 5 3 6 5 7 7 8 9 8 7 7 7 6 6 8 9 11 16 22 26 31 32 31 31 35 39 39 39 41 40 40 39 35
10 4 4 4 4 5 11 9 19 2 4 9 5 9 5 3 4 2 7 6 5 4 4 1 3 5 10 12 13 15 17 21 21 22 24 28 32 33 34 36 37 36 35 34
12 5 6 11 14 5 13 23 22 21 7 15 18 8 5 6 5 5 5 4 4 5 6 4 3 5 9 12 14 15 16 17 17 19 22 25 28 29 30 28 29 31 33 31
3 7 9 11 5 6 12 22 20 21 24 13 26 10 13 8 10 8 5 5 6 6 6 7 7 7 11 12 12 13 14 14 15 16 18 21 21 21 22 23 24 24 26 27
10 3 8 9 14 6 5 18 22 21 25 24 18 9 6 8 5 5 8 8 8 8 8 8 8 8 8 13 15 15 16 17 17 17 18 16 16 18 18 19 20 20 21 22
7 7 5 7 9 3 4 22 26 27 25 31 21 33 7 6 8 10 11 10 10 8 9 9 10 7 14 18 17 20 20 19 20 19 17 15 14 15 16 17 18 18 19 20
6 5 3 3 6 14 9 10 22 30 31 31 26 17 20 19 9 9 8 10 10 9 8 9 6 10 13 12 14 16 15 18 17 17 15 15 15 15 15 16 17 16 16 17
7 5 3 5 8 4 4 10 25 20 31 26 26 28 24 9 9 15 9 9 11 10 9 6 6 8 6 5 8 13 15 12 14 16 16 16 16 17 18 19 17 16 17 17
14 13 8 3 8 9 12 8 9 6 21 27 26 27 24 9 11 18 17 8 6 6 6 6 6 6 5 3 5 8 8 10 11 12 13 14 15 18 21 20 16 15 14 14
9 7 16 16 6 5 8 10 19 13 16 11 27 26 22 18 25 19 7 5 5 6 10 10 10 10 4 2 2 6 5 3 3 6 9 11 13 17 17 15 15 14 13 13
10 8 4 8 8 11 9 12 22 19 3 4 1 14 18 24 19 7 7 9 9 8 11 12 13 11 8 5 3 6 6 2 3 4 4 6 9 12 13 13 13 11 11 10
5 6 8 8 6 3 9 4 4 4 4 4 3 4 7 7 8 9 7 8 6 6 10 12 14 11 9 7 6 6 0 0 2 3 2 3 4 6 10 13 11 12 13 14
5 4 3 4 5 5 7 4 5 6 4 3 3 2 6 7 8 8 7 7 5 7 8 11 12 11 9 9 8 5 4 5 7 9 7 6 5 6 8 8 8 12 13 13
3 6 6 5 4 3 2 5 8 11 6 3 4 4 5 10 8 9 8 7 7 9 11 11 10 11 11 10 9 7 6 6 10 11 9 9 9 9 9 7 6 7 8 10
7 1 4 3 7 6 1 5 9 8 7 7 2 3 5 6 10 11 10 9 10 11 13 14 14 15 12 13 12 11 10 10 12 14 13 11 12 12 13 14 13 10 8 7
Wind_Direction
168 175 208 194 199 129 159 202 230 247 221 213 250 245 244 242 225 239 236 236 219 218 222 213 216 217 212 216 212 218 219 219 217 212 212 217 220 220 223 223 226 225 225 224
158 215 205 181 199 193 158 173 238 253 229 228 263 249 247 230 232 230 231 228 228 223 227 212 209 209 207 211 214 212 218 217 217 213 214 214 222 223 223 221 225 226 226 229
204 188 157 165 165 183 214 184 237 240 225 256 276 263 252 236 234 240 238 233 225 222 219 219 205 204 207 208 207 207 210 212 217 212 216 220 222 225 227 228 228 225 226 230
213 163 165 173 180 180 214 210 220 277 218 241 187 269 247 230 228 225 227 229 232 224 209 213 208 206 208 212 209 206 207 210 215 217 211 208 208 211 220 223 228 230 229 232
191 171 172 177 192 179 227 154 187 276 201 330 225 228 259 186 236 235 232 232 229 228 211 214 208 208 210 207 205 207 205 208 213 214 210 210 212 219 221 223 229 232 233 236
171 167 164 172 176 184 135 145 70 2 110 241 217 203 261 198 215 249 232 228 230 222 212 214 211 211 209 207 206 203 202 207 209 214 211 215 216 214 214 220 224 230 236 238
183 182 161 138 133 167 185 153 139 218 201 229 232 200 249 249 251 232 238 239 229 224 212 217 195 201 204 200 204 203 203 204 208 213 214 216 221 216 218 220 222 223 231 233
185 181 172 185 179 169 186 202 165 186 215 222 102 234 244 242 249 247 225 243 274 229 221 217 203 202 204 201 203 204 203 205 207 211 216 220 219 220 223 226 224 227 229 234
182 222 177 181 182 144 162 195 182 97 334 64 217 290 287 267 244 244 234 231 225 225 218 221 218 203 204 205 204 203 204 207 208 214 219 216 217 220 223 225 229 232 238 239
209 215 190 181 214 218 176 141 147 102 157 245 244 256 248 271 259 261 238 232 233 228 226 219 214 211 212 214 212 209 210 208 214 220 219 218 220 223 225 225 229 232 235 239
156 140 264 158 201 192 180 178 198 138 167 188 199 245 221 246 187 248 238 224 222 219 228 235 232 222 212 215 216 216 216 216 217 222 223 222 225 229 228 225 233 237 238 241
196 127 192 198 170 238 210 198 202 181 190 204 155 262 231 245 270 239 247 215 217 210 212 219 217 198 181 187 201 214 220 224 228 230 230 230 234 236 236 235 236 239 241 241
152 205 151 135 322 329 212 232 201 256 83 216 178 252 309 311 314 254 200 208 203 187 163 116 152 181 182 186 189 199 207 216 220 225 229 233 235 235 237 238 239 242 242 246
149 192 205 195 210 110 200 204 202 203 206 228 230 246 285 271 234 227 225 233 214 205 191 188 189 208 207 202 202 208 214 219 222 227 230 233 235 237 238 239 238 237 237 239
183 209 211 244 272 196 210 210 206 204 220 202 236 217 236 239 225 213 236 197 190 208 206 203 203 209 221 220 217 217 219 219 220 223 227 232 235 235 232 228 224 225 226 230
184 272 192 234 253 257 206 208 213 217 225 233 236 257 207 248 241 214 228 202 201 202 213 213 215 210 207 209 212 213 217 218 216 221 227 231 231 230 230 230 231 231 232 232
161 183 172 234 222 205 253 208 203 215 220 222 226 232 163 232 220 220 218 203 203 201 204 211 218 205 210 210 212 213 216 216 217 221 225 225 224 225 230 231 230 230 231 231
141 153 189 224 140 226 241 186 213 219 225 226 235 241 225 228 231 232 218 193 214 221 220 230 202 209 221 218 219 225 221 214 215 222 228 228 224 222 223 226 225 223 222 225
199 166 192 225 208 307 283 224 201 198 239 234 239 241 231 228 229 255 218 207 214 200 219 227 208 217 207 218 227 218 209 203 216 227 230 229 227 226 221 222 223 224 233 234
196 209 191 242 225 211 231 158 150 157 266 230 227 239 232 183 220 233 235 205 180 138 139 141 133 121 154 191 211 190 189 206 223 233 239 239 237 234 231 231 223 231 237 242
199 203 209 220 238 265 238 183 141 155 243 202 212 225 224 215 223 233 145 113 128 129 131 138 136 127 94 38 131 134 159 157 234 245 239 231 230 235 235 228 228 234 239 245
191 172 171 211 202 252 163 153 168 210 4 72 156 221 215 226 223 161 145 138 141 136 131 135 118 87 61 51 108 121 130 239 258 271 265 244 238 237 221 218 224 230 232 230
238 213 167 201 219 274 208 214 3 353 166 183 209 247 208 160 165 146 139 128 124 124 122 123 120 110 81 79 109 120 122 239 188 158 152 146 164 183 197 200 210 212 210 212
231 214 187 118 248 235 231 308 4 359 344 38 27 106 149 142 138 120 115 115 102 92 94 118 110 97 87 73 75 88 93 112 127 123 122 124 139 163 176 194 206 204 200 206
186 155 193 265 254 137 66 29 340 323 339 74 35 19 120 123 115 123 117 105 98 101 98 110 103 98 83 78 74 82 101 122 113 105 109 119 125 139 137 138 168 197 219 229
344 68 211 237 1 315 47 357 348 340 346 352 27 77 32 92 122 122 112 108 109 97 90 83 86 93 88 89 81 82 95 108 115 118 122 126 131 133 137 130 116 111 113 114